Hourly Weather Ananev

Today, 14 August, Friday

Time Temperature Precipitation Wind Pressure Humidity
00:00 +15°C° 0 mm 1 mps 750 mmHg 67%
01:00 +14°C° 0 mm 1 mps 750 mmHg 69%
02:00 +13°C° 0 mm 0 mps 750 mmHg 72%
03:00 +13°C° 0 mm 0 mps 750 mmHg 73%
04:00 +13°C° 0 mm 0 mps 750 mmHg 73%
05:00 +12°C° 0 mm 0 mps 749 mmHg 74%
06:00 +15°C° 0 mm 1 mps 750 mmHg 67%
07:00 +18°C° 0 mm 1 mps 750 mmHg 61%
08:00 +20°C° 0 mm 2 mps 750 mmHg 55%
09:00 +21°C° 0 mm 2 mps 750 mmHg 51%
10:00 +22°C° 0 mm 3 mps 750 mmHg 47%
11:00 +25°C° 0 mm 3 mps 750 mmHg 42%
12:00 +25°C° 0 mm 3 mps 750 mmHg 42%
13:00 +25°C° 0 mm 3 mps 750 mmHg 42%
14:00 +25°C° 0 mm 3 mps 750 mmHg 41%
15:00 +25°C° 0 mm 3 mps 750 mmHg 41%
16:00 +25°C° 0 mm 3 mps 750 mmHg 41%
17:00 +25°C° 0 mm 3 mps 750 mmHg 40%
18:00 +22°C° 0 mm 3 mps 750 mmHg 46%
19:00 +20°C° 0 mm 3 mps 750 mmHg 53%
20:00 +18°C° 0 mm 3 mps 750 mmHg 59%
21:00 +17°C° 0 mm 3 mps 750 mmHg 60%
22:00 +16°C° 0 mm 3 mps 750 mmHg 61%
23:00 +14°C° 0 mm 3 mps 751 mmHg 62%

Tomorrow, 15 August, Saturday

Time Temperature Precipitation Wind Pressure Humidity
00:00 +14°C° 0 mm 3 mps 751 mmHg 64%
01:00 +14°C° 0 mm 2 mps 751 mmHg 65%
02:00 +14°C° 0 mm 2 mps 751 mmHg 67%
03:00 +13°C° 0 mm 2 mps 751 mmHg 67%
04:00 +13°C° 0 mm 2 mps 751 mmHg 68%
05:00 +13°C° 0 mm 2 mps 751 mmHg 69%
06:00 +15°C° 0 mm 2 mps 751 mmHg 63%
07:00 +17°C° 0 mm 3 mps 751 mmHg 57%
08:00 +18°C° 0 mm 3 mps 751 mmHg 51%
09:00 +20°C° 0 mm 3 mps 751 mmHg 47%
10:00 +21°C° 0 mm 3 mps 751 mmHg 43%
11:00 +24°C° 0 mm 3 mps 751 mmHg 39%
12:00 +25°C° 0 mm 3 mps 751 mmHg 37%
13:00 +25°C° 0 mm 3 mps 751 mmHg 35%
14:00 +26°C° 0 mm 3 mps 750 mmHg 34%
15:00 +26°C° 0 mm 2 mps 750 mmHg 34%
16:00 +26°C° 0 mm 2 mps 750 mmHg 34%
17:00 +26°C° 0 mm 2 mps 749 mmHg 34%
18:00 +24°C° 0 mm 2 mps 749 mmHg 36%
19:00 +23°C° 0 mm 2 mps 749 mmHg 38%
20:00 +20°C° 0 mm 2 mps 749 mmHg 41%
21:00 +20°C° 0 mm 2 mps 749 mmHg 44%
22:00 +19°C° 0 mm 3 mps 750 mmHg 47%
23:00 +18°C° 0 mm 3 mps 750 mmHg 50%

Day after tomorrow, 16 August, Sunday

Time Temperature Precipitation Wind Pressure Humidity
00:00 +17°C° 0 mm 3 mps 750 mmHg 52%
01:00 +17°C° 0 mm 2 mps 750 mmHg 55%
02:00 +16°C° 0 mm 2 mps 749 mmHg 57%
03:00 +16°C° 0 mm 2 mps 749 mmHg 57%
04:00 +16°C° 0 mm 2 mps 749 mmHg 58%
05:00 +16°C° 0 mm 2 mps 749 mmHg 58%
06:00 +17°C° 0 mm 2 mps 750 mmHg 54%
07:00 +19°C° 0 mm 2 mps 750 mmHg 50%
08:00 +21°C° 0 mm 3 mps 750 mmHg 47%
09:00 +22°C° 0 mm 3 mps 750 mmHg 42%
10:00 +25°C° 0 mm 2 mps 751 mmHg 38%
11:00 +26°C° 0 mm 2 mps 751 mmHg 33%
12:00 +27°C° 0 mm 2 mps 751 mmHg 31%
13:00 +28°C° 0 mm 2 mps 750 mmHg 29%
14:00 +29°C° 0 mm 2 mps 750 mmHg 27%
15:00 +28°C° 0 mm 2 mps 750 mmHg 27%
16:00 +28°C° 0 mm 2 mps 750 mmHg 27%
17:00 +28°C° 0 mm 2 mps 749 mmHg 27%
18:00 +26°C° 0 mm 2 mps 750 mmHg 31%
19:00 +24°C° 0 mm 2 mps 750 mmHg 35%
20:00 +22°C° 0 mm 1 mps 750 mmHg 39%
21:00 +20°C° 0 mm 2 mps 750 mmHg 41%
22:00 +19°C° 0 mm 2 mps 750 mmHg 43%
23:00 +19°C° 0 mm 2 mps 750 mmHg 45%

17 August, Monday

Time Temperature Precipitation Wind Pressure Humidity
00:00 +18°C° 0 mm 2 mps 750 mmHg 47%
01:00 +18°C° 0 mm 1 mps 750 mmHg 49%
02:00 +15°C° 0 mm 0 mps 750 mmHg 51%
03:00 +16°C° 0 mm 1 mps 750 mmHg 52%
04:00 +16°C° 0 mm 1 mps 750 mmHg 53%
05:00 +16°C° 0 mm 1 mps 750 mmHg 54%
06:00 +19°C° 0 mm 1 mps 751 mmHg 48%
07:00 +21°C° 0 mm 1 mps 751 mmHg 43%
08:00 +24°C° 0 mm 1 mps 751 mmHg 38%
09:00 +26°C° 0 mm 1 mps 751 mmHg 35%
10:00 +27°C° 0 mm 1 mps 751 mmHg 31%
11:00 +29°C° 0 mm 1 mps 751 mmHg 27%
12:00 +30°C° 0 mm 1 mps 750 mmHg 26%
13:00 +30°C° 0 mm 1 mps 750 mmHg 24%
14:00 +31°C° 0 mm 1 mps 750 mmHg 23%
15:00 +31°C° 0 mm 1 mps 749 mmHg 23%
16:00 +31°C° 0 mm 1 mps 749 mmHg 23%
17:00 +31°C° 0 mm 1 mps 748 mmHg 23%
18:00 +28°C° 0 mm 1 mps 748 mmHg 26%
19:00 +26°C° 0 mm 1 mps 748 mmHg 30%
20:00 +24°C° 0 mm 2 mps 748 mmHg 33%
21:00 +23°C° 0 mm 2 mps 748 mmHg 37%
22:00 +21°C° 0 mm 3 mps 748 mmHg 41%
23:00 +20°C° 0 mm 3 mps 748 mmHg 45%

18 August, Tuesday

Time Temperature Precipitation Wind Pressure Humidity
00:00 +20°C° 0 mm 3 mps 748 mmHg 46%
01:00 +19°C° 0 mm 3 mps 748 mmHg 47%
02:00 +19°C° 0 mm 3 mps 748 mmHg 48%
03:00 +18°C° 0 mm 2 mps 748 mmHg 51%
04:00 +18°C° 0 mm 2 mps 747 mmHg 53%
05:00 +18°C° 0 mm 1 mps 747 mmHg 55%
06:00 +20°C° 0 mm 2 mps 747 mmHg 50%
07:00 +23°C° 0 mm 2 mps 747 mmHg 45%
08:00 +25°C° 0 mm 3 mps 747 mmHg 41%
09:00 +27°C° 0 mm 3 mps 747 mmHg 35%
10:00 +29°C° 0 mm 4 mps 747 mmHg 30%
11:00 +30°C° 0 mm 4 mps 747 mmHg 25%
12:00 +32°C° 0 mm 4 mps 746 mmHg 23%
13:00 +33°C° 0 mm 4 mps 746 mmHg 21%
14:00 +34°C° 0 mm 4 mps 745 mmHg 19%
15:00 +34°C° 0 mm 4 mps 745 mmHg 19%
16:00 +34°C° 0 mm 3 mps 745 mmHg 19%
17:00 +34°C° 0 mm 3 mps 745 mmHg 19%
18:00 +30°C° 0 mm 4 mps 745 mmHg 23%
19:00 +28°C° 0 mm 4 mps 745 mmHg 27%
20:00 +26°C° 0 mm 5 mps 745 mmHg 30%
21:00 +25°C° 0 mm 5 mps 745 mmHg 35%
22:00 +23°C° 0 mm 5 mps 745 mmHg 40%
23:00 +22°C° 0 mm 5 mps 745 mmHg 44%

19 August, Wednesday

Time Temperature Precipitation Wind Pressure Humidity
00:00 +21°C° 0 mm 4 mps 745 mmHg 47%
01:00 +21°C° 0 mm 4 mps 745 mmHg 49%
02:00 +20°C° 0 mm 4 mps 745 mmHg 52%
03:00 +19°C° 0 mm 3 mps 745 mmHg 53%
04:00 +19°C° 0 mm 3 mps 744 mmHg 54%
05:00 +19°C° 0 mm 3 mps 744 mmHg 55%
06:00 +21°C° 0 mm 3 mps 744 mmHg 51%
07:00 +23°C° 0 mm 4 mps 744 mmHg 47%
08:00 +26°C° 0 mm 4 mps 744 mmHg 43%
09:00 +28°C° 0 mm 5 mps 744 mmHg 38%
10:00 +30°C° 0 mm 6 mps 744 mmHg 32%
11:00 +33°C° 0 mm 6 mps 744 mmHg 27%
12:00 +34°C° 0 mm 6 mps 744 mmHg 26%
13:00 +35°C° 0 mm 6 mps 743 mmHg 25%
14:00 +36°C° 0 mm 5 mps 743 mmHg 24%
15:00 +36°C° 0 mm 5 mps 743 mmHg 24%
16:00 +35°C° 0 mm 5 mps 743 mmHg 25%
17:00 +35°C° 0 mm 5 mps 742 mmHg 25%
18:00 +33°C° 0 mm 6 mps 742 mmHg 28%
19:00 +30°C° 0 mm 6 mps 743 mmHg 31%
20:00 +27°C° 0 mm 6 mps 743 mmHg 35%
21:00 +26°C° 0 mm 6 mps 743 mmHg 39%
22:00 +25°C° 0 mm 5 mps 743 mmHg 43%
23:00 +22°C° 0 mm 4 mps 743 mmHg 46%
Show more